Location: Unspecified
(0.0000°N, 0.0000°E)
Time: 17:58:27
(UTC+00:00)

COSMOS 2401 - Pass Details

Date: 28 February 2021
Orbit: 1467 x 1500 km, 82.5° (Epoch: 11 April)

Event Time Altitude Azimuth Distance (km) Brightness Sun altitude
Rises 20:08:39 0° 189° (S) 4,578 10.2 -28.8°
Reaches altitude 10° 20:11:32 10° 191° (S) 3,598 9.6 -29.5°
Maximum altitude 20:20:05 69° 273° (W) 1,553 7.5 -31.6°
Drops below altitude 10° 20:28:40 10° 355° (N) 3,601 9.4 -33.7°
Sets 20:31:34 0° 358° (N) 4,583 9.9 -34.4°
